Wind_Speed
7 9 12 10 9 10 12 13 14 14 12 14 17 21 20 19 9 16 16 18 20 22 27 33 35 34 34 26 25 28 27 35 33 31 32 34 32 30 30 30 29 28 27 32
7 13 5 4 5 8 10 14 15 13 7 11 19 21 17 11 13 12 17 18 20 21 22 27 30 33 33 31 25 26 28 32 36 28 32 36 32 33 32 32 32 34 32 31
13 4 2 6 7 9 10 12 13 15 15 19 19 18 13 4 16 18 19 20 20 21 22 23 27 29 31 28 27 30 31 29 35 37 28 36 32 31 31 31 30 33 32 31
10 5 6 8 7 5 9 8 12 13 11 10 10 14 8 11 14 19 20 20 21 21 20 20 24 27 28 27 25 25 28 25 26 25 31 37 35 28 31 28 29 28 29 29
5 9 9 10 4 2 5 9 12 14 14 14 14 7 10 9 16 21 20 20 20 19 19 18 23 28 27 25 25 24 24 21 21 20 23 26 37 29 29 30 28 26 26 26
14 4 5 9 3 5 9 12 15 11 8 8 3 5 6 7 11 16 18 20 19 19 19 19 26 28 28 27 27 24 22 19 18 15 22 12 28 28 13 8 23 19 16 22
14 13 6 7 9 9 7 11 5 6 7 10 8 9 6 9 11 13 16 17 19 20 19 19 21 26 29 29 28 24 21 19 17 13 24 24 14 6 8 7 29 11 12 16
8 7 15 12 8 5 6 5 6 6 7 12 18 3 5 6 11 13 12 15 18 21 20 20 23 27 28 30 27 26 21 20 19 17 24 28 27 24 17 10 13 6 9 5
5 5 8 7 7 5 3 6 7 8 16 10 2 4 3 10 13 11 15 17 17 18 19 21 28 29 26 29 28 26 22 21 20 23 26 30 29 25 25 19 10 9 7 7
3 3 6 6 4 12 11 1 4 6 5 7 3 4 4 13 14 14 13 14 18 17 18 20 24 29 29 30 26 26 24 23 21 25 30 30 29 25 24 21 20 15 12 9
5 3 8 7 9 6 5 9 8 11 9 5 8 4 5 7 9 12 12 13 13 15 16 16 22 27 28 29 26 28 27 26 26 30 28 30 26 26 18 22 19 17 19 20
5 2 4 7 5 2 4 9 11 8 8 7 6 2 5 4 8 11 12 14 14 12 13 14 21 24 28 27 33 32 32 33 29 31 33 31 26 24 24 28 31 30 25 23
9 5 5 8 8 7 3 5 8 9 7 14 6 4 4 6 8 11 13 14 13 15 15 14 20 23 27 29 29 33 36 33 32 28 28 28 28 29 33 34 34 33 29 30
3 4 5 5 4 4 5 10 13 15 6 4 4 7 4 6 9 11 12 13 13 13 16 16 16 22 26 29 29 28 29 31 31 32 32 33 33 39 40 36 35 36 31 33
3 4 1 7 8 5 3 7 10 4 3 3 7 6 4 6 7 9 11 11 13 15 17 18 18 23 29 31 33 33 34 34 34 36 36 37 37 36 39 36 33 36 38 35
6 3 5 7 7 5 6 6 2 8 10 9 12 7 5 5 5 8 10 11 12 13 15 16 18 24 26 29 31 35 35 39 36 39 35 34 36 35 34 27 29 30 30 30
7 5 6 3 11 8 5 3 6 6 7 3 4 7 7 6 7 8 9 10 12 13 14 15 17 22 24 27 29 31 32 33 33 30 34 34 31 29 27 26 28 28 27 27
6 6 3 5 9 5 6 7 7 9 7 10 13 9 7 8 7 7 8 8 10 11 12 14 17 20 21 23 25 25 28 31 33 32 31 31 28 28 27 27 29 27 27 27
5 4 4 4 7 6 8 8 7 5 4 3 8 10 9 9 9 9 8 7 7 9 11 13 13 13 18 21 21 24 27 27 28 30 28 27 28 27 27 27 26 25 25 25
6 5 4 4 5 5 10 11 4 3 6 8 9 11 10 10 5 4 6 6 7 9 9 12 13 15 16 18 19 20 21 22 22 21 24 24 25 26 26 26 28 24 23 23
8 8 8 7 6 5 7 11 7 4 5 8 8 9 12 8 5 9 7 5 3 4 9 10 13 16 17 17 18 19 20 19 19 19 19 21 21 21 23 23 24 25 22 23
5 4 4 3 4 4 6 9 4 7 12 11 10 10 13 14 12 10 6 6 5 6 8 10 12 14 16 17 17 19 21 20 19 19 19 20 18 20 20 21 22 23 24 23
3 3 3 5 3 4 3 4 9 10 11 10 12 13 14 14 12 10 9 7 6 7 8 9 11 12 15 16 17 18 20 19 18 18 20 20 22 21 20 23 24 25 27 26
3 2 2 7 4 6 7 6 8 10 11 11 11 12 12 13 12 10 9 8 8 8 9 9 10 12 13 14 16 17 17 18 17 18 20 20 20 21 21 20 22 23 25 25
3 7 6 4 7 8 8 9 9 11 11 11 10 10 11 12 11 10 8 8 8 8 8 9 10 11 11 13 15 16 18 18 17 18 18 19 18 19 20 18 17 20 17 20
6 6 5 2 13 5 13 12 13 13 11 11 11 11 11 12 11 11 10 8 7 7 7 9 9 9 11 11 13 15 17 17 17 16 17 17 17 18 19 19 18 14 16 14
Wind_Direction
184 264 238 344 346 313 293 288 285 290 304 301 288 293 305 309 344 12 359 352 344 339 341 328 323 320 316 311 308 308 299 295 294 209 215 217 211 202 202 210 207 207 209 208
230 239 52 319 293 282 282 281 280 298 307 285 293 298 297 309 73 36 9 350 341 338 334 325 325 320 317 322 303 307 299 294 290 246 212 222 211 207 202 206 204 203 205 202
254 23 118 275 273 267 269 285 299 307 310 273 263 289 316 301 86 28 4 353 342 337 334 328 325 323 319 319 319 309 299 292 284 282 237 220 215 210 205 204 205 203 205 205
260 121 229 260 260 274 288 3 310 293 296 303 319 299 25 16 23 8 359 349 350 340 335 332 332 327 322 320 314 306 305 298 295 309 303 209 214 206 207 204 204 207 205 207
116 200 225 236 259 311 293 332 299 293 285 295 279 249 84 27 359 355 357 351 353 343 337 341 339 335 328 328 323 320 312 307 308 331 324 252 222 215 206 201 197 200 197 208
264 158 249 244 199 249 296 289 271 258 270 267 179 265 53 20 348 346 357 352 356 353 347 346 348 344 337 340 337 329 334 330 330 346 350 323 233 234 213 213 194 171 176 188
211 217 192 223 232 191 240 268 289 232 215 254 15 304 64 23 18 5 360 354 360 358 354 353 356 348 343 340 344 339 347 341 349 19 22 26 35 211 223 328 332 118 183 192
216 179 194 176 239 300 282 304 287 297 308 320 305 334 94 59 47 12 14 2 6 3 360 356 360 350 350 344 342 348 356 347 360 35 42 37 36 45 56 105 206 346 353 52
200 240 163 179 223 233 118 236 321 294 273 256 186 92 192 42 15 16 9 2 6 360 358 356 357 355 349 347 346 351 2 5 14 32 47 48 41 38 47 43 25 52 326 328
140 237 225 184 237 231 239 323 269 223 264 271 332 161 55 1 356 359 9 4 358 357 355 354 354 355 350 351 350 1 8 20 27 39 45 46 44 42 45 46 29 17 6 358
170 231 140 190 226 194 190 236 234 262 268 272 294 90 23 10 3 3 7 9 1 356 354 351 351 356 354 356 359 12 15 17 35 44 48 51 49 54 49 53 42 26 27 27
186 140 242 234 57 313 274 261 243 237 259 263 279 105 38 44 17 16 10 8 4 360 356 355 354 359 1 360 6 13 17 23 28 41 46 45 47 50 51 46 46 38 33 36
176 192 227 176 168 137 336 325 291 287 298 269 275 100 69 28 33 25 17 13 6 1 2 0 3 5 3 6 13 12 16 21 25 37 51 52 48 45 43 40 39 42 36 38
194 222 292 341 65 359 323 324 310 266 253 319 53 123 76 36 24 22 19 14 10 12 9 8 8 5 3 9 11 18 24 23 23 26 32 39 37 40 43 40 39 38 35 32
210 199 152 129 112 78 43 8 10 27 354 334 130 109 74 41 25 22 19 14 16 17 15 11 8 5 8 11 12 18 22 25 26 31 27 32 34 34 37 32 32 37 33 31
170 170 173 187 204 167 93 35 61 75 92 104 122 102 101 82 56 33 25 19 22 17 17 13 10 11 11 14 13 15 18 24 24 31 27 31 33 32 35 30 35 37 36 31
169 181 195 221 195 209 203 95 93 72 57 154 181 108 146 108 65 36 21 25 21 15 14 17 15 11 12 16 19 20 22 25 28 28 29 31 32 34 33 32 36 35 31 32
186 198 249 159 168 226 105 120 108 107 70 90 105 134 123 110 103 68 46 28 24 16 16 18 21 16 18 21 26 24 25 27 30 30 29 30 31 33 31 31 33 31 29 30
236 281 246 233 218 110 167 190 177 201 126 141 149 152 147 148 139 77 58 45 16 9 21 24 33 41 22 25 25 29 29 28 26 26 26 28 30 31 30 30 29 29 28 27
200 246 268 246 249 216 102 133 137 149 180 169 174 174 173 179 229 97 68 46 16 14 26 32 32 33 34 29 28 32 33 32 28 32 28 29 29 29 26 26 26 25 26 26
211 221 238 257 253 105 127 138 143 205 115 149 160 160 178 185 70 120 103 71 11 12 37 38 39 37 30 28 31 30 28 34 30 27 33 32 31 33 31 28 27 22 23 24
218 218 201 243 250 177 147 147 222 113 128 132 120 112 108 123 126 115 114 160 129 71 49 43 46 40 33 28 28 29 24 23 24 25 27 30 28 29 32 31 26 24 21 23
218 329 13 8 47 112 117 99 126 134 133 134 127 130 133 129 125 136 143 117 94 75 65 50 48 45 36 31 28 26 19 17 19 24 24 25 24 25 26 26 26 23 19 18
144 170 98 181 126 130 129 106 116 125 126 124 127 131 139 131 132 129 127 121 101 77 61 53 51 45 39 31 29 25 17 15 18 22 23 19 21 17 21 23 24 24 20 17
43 165 143 85 148 142 145 135 129 124 121 123 122 124 125 134 132 125 120 112 92 80 70 55 49 42 35 29 26 20 17 15 16 20 18 15 15 15 15 25 27 24 27 27
187 147 200 194 169 185 156 147 146 142 140 135 133 130 130 133 129 126 115 104 100 88 70 61 50 40 32 28 23 19 16 16 15 16 12 13 10 10 12 11 9 23 28 24
Height
781 784 770 760 770 775 777 775 770 759 754 763 760 753 748 741 738 751 755 760 763 765 767 766 759 753 745 740 737 733 727 721 717 712 718 722 721 723 727 731 735 740 746 747
785 778 766 778 779 780 778 775 767 757 753 760 753 749 741 733 751 761 767 770 773 775 777 773 768 760 752 744 738 734 729 722 713 709 708 714 715 717 718 723 724 726 732 737
776 765 779 782 776 775 768 769 766 769 762 756 748 742 733 735 751 763 774 779 781 782 781 778 772 766 759 751 745 740 733 723 712 705 699 704 705 710 711 713 718 722 728 734
774 765 779 778 775 774 774 766 773 772 767 758 747 753 737 746 754 775 782 785 788 789 785 782 776 768 762 754 749 742 733 724 713 703 694 688 694 695 699 706 713 720 727 732
764 772 774 775 770 775 771 772 772 770 764 755 738 740 750 761 776 785 793 794 796 795 789 785 780 773 763 755 747 739 731 722 714 702 696 688 687 688 694 699 703 709 716 727
767 765 773 768 771 775 771 772 761 758 754 753 728 742 751 793 809 802 802 799 800 798 793 787 783 775 764 755 746 737 728 720 713 702 696 687 688 690 690 702 693 701 709 713
762 764 766 771 772 767 771 763 762 756 751 745 717 732 785 799 804 808 810 806 803 799 797 789 782 774 766 756 747 737 728 721 714 704 698 695 692 691 694 693 670 677 711 711
756 768 762 764 765 763 762 764 765 764 745 738 728 739 786 793 804 807 813 808 806 803 799 793 786 778 769 759 751 739 730 724 715 706 703 700 697 698 699 704 713 715 716 714
763 758 752 758 761 765 766 768 754 765 756 755 741 788 785 786 802 814 813 809 807 806 802 797 789 781 769 764 754 743 735 727 717 708 705 706 706 710 708 713 722 708 723 720
766 772 756 752 761 758 762 761 772 767 767 753 727 763 768 799 812 815 815 816 812 809 805 801 794 784 778 770 760 748 738 731 724 715 706 708 713 719 718 722 721 725 725 722
771 773 759 758 756 753 763 767 771 758 754 757 746 768 808 819 818 820 820 820 817 814 811 806 800 792 784 766 765 752 742 733 730 723 721 721 728 724 737 726 731 733 723 715
771 782 775 754 744 748 753 759 765 762 752 748 752 779 815 821 820 820 822 822 820 819 815 811 805 798 785 778 762 755 748 742 737 732 728 730 734 738 738 730 721 720 723 725
770 779 758 755 755 751 758 762 764 767 771 758 760 783 814 816 819 823 824 824 824 821 817 812 805 798 791 784 775 763 753 750 747 746 745 745 741 736 729 727 729 730 735 731
776 761 763 753 771 771 778 776 771 762 767 764 779 807 817 818 821 823 827 828 827 825 820 814 808 803 797 788 782 776 770 762 756 751 747 743 744 731 731 740 735 735 741 733
774 773 777 770 774 780 796 792 787 773 775 772 798 806 822 826 829 831 832 832 829 825 822 818 814 809 800 792 785 779 774 770 765 757 753 748 747 746 742 747 753 747 739 743
771 781 787 787 781 780 797 796 793 786 789 794 797 815 824 829 831 833 835 834 832 829 828 827 824 818 811 804 796 788 782 773 773 763 767 764 758 760 760 768 762 759 759 757
768 768 768 760 779 773 775 801 795 792 785 785 781 810 823 828 832 838 838 837 836 835 833 832 829 824 818 810 804 798 794 790 785 786 779 775 776 776 777 775 769 767 767 765
757 760 762 761 767 765 799 792 791 797 801 801 811 819 821 830 838 840 843 842 842 839 837 834 833 830 824 819 815 812 806 800 796 794 792 789 790 787 785 782 775 775 774 770
758 758 756 754 752 788 797 792 791 790 805 805 809 819 825 831 832 839 844 847 847 842 840 837 835 834 830 825 821 817 813 810 808 805 804 802 798 794 792 789 786 784 782 779
757 760 762 748 749 752 763 776 784 784 789 799 805 813 820 824 822 835 847 849 849 844 841 839 837 836 834 831 828 824 823 821 818 815 813 810 806 803 801 797 792 792 791 787
759 752 756 750 747 768 775 785 791 787 796 802 801 807 812 818 833 845 848 851 851 846 843 841 840 838 837 834 832 830 827 825 824 822 819 816 814 811 808 805 801 799 796 793
747 749 757 752 748 760 785 792 789 797 799 802 806 810 820 830 837 843 849 849 848 846 844 843 842 842 841 838 835 834 830 828 826 825 822 819 818 815 812 810 808 805 801 796
755 753 755 770 783 799 795 794 794 797 801 805 809 816 823 827 836 843 845 846 846 845 845 845 845 845 844 843 841 839 836 832 830 828 825 822 820 817 814 811 808 805 802 798
763 764 767 782 800 799 801 801 801 802 807 811 816 820 823 827 834 839 842 845 846 847 848 848 848 848 848 848 846 844 842 837 834 830 827 824 822 820 817 814 812 811 809 806
753 763 778 795 798 799 802 806 809 810 814 818 822 824 827 831 834 839 842 845 847 849 851 851 851 851 852 851 850 848 845 842 837 834 831 830 827 824 820 817 815 815 814 812
758 768 775 768 785 785 795 804 810 814 818 821 825 828 831 834 836 840 844 847 849 852 853 853 854 854 854 853 852 850 847 844 840 837 836 833 829 827 823 820 819 817 815 814